Location: New Frontier Mobile Home Park
(32.8448°N, 116.9675°W)
Time: 23:14:57
(UTC+00:00)

BREEZE-M R/B - Pass Details

Date: 14 July 2020
Orbit: 311 x 4532 km, 49.7° (Epoch: 05 August)

Event Time Altitude Azimuth Distance (km) Brightness Sun altitude
Rises 04:36:56 0° 310° (NW) 6,463 10.0 -18.1°
Reaches altitude 10° 04:42:13 10° 311° (NW) 4,717 8.8 -18.9°
Maximum altitude 04:53:25 86° 41° (NE) 1,103 4.2 -20.6°
Enters shadow 04:55:40 40° 128° (SE) 1,303 4.2 -20.9°
